Wind_Speed
30 30 31 29 28 27 26 25 23 22 21 19 18 16 15 14 13 12 12 11 10 9 8 7 6 5 5 4 4 4 4 4 4 4 4 5 6 7 7 7 9 11 12
29 31 30 30 30 30 29 28 26 25 23 22 20 18 17 16 16 15 14 13 12 11 10 9 8 7 7 6 5 5 5 5 5 5 5 5 6 7 8 8 9 10 11
31 30 31 30 31 31 30 29 29 27 26 24 23 21 19 19 19 17 16 15 14 13 12 11 11 10 9 8 7 7 6 6 6 6 6 6 6 7 7 8 9 10 11
34 32 31 30 31 32 32 31 30 29 28 27 25 23 22 21 21 20 18 17 16 15 14 14 13 12 11 10 9 9 8 8 7 7 7 7 7 7 7 8 9 10 11
34 33 32 32 32 33 34 32 31 29 29 28 27 26 24 23 23 22 21 20 19 17 16 16 15 14 13 13 12 11 10 10 9 9 9 9 9 9 9 9 9 10 11
35 34 33 34 34 34 34 33 31 31 31 30 29 28 26 25 25 23 23 22 21 20 18 17 17 17 16 15 14 14 13 12 11 11 11 10 10 10 10 10 11 12 12
35 35 35 34 35 35 35 34 32 31 31 30 30 30 28 27 27 26 25 24 23 22 21 20 20 19 18 18 17 16 16 15 14 13 13 13 12 12 12 12 12 13 14
35 36 36 36 36 36 35 35 34 32 31 31 31 31 31 29 29 28 27 26 25 24 23 22 22 21 20 19 19 18 18 17 17 16 15 15 15 15 15 15 15 15 15
33 34 36 36 37 37 37 36 34 33 32 32 31 32 33 31 31 30 29 28 27 26 25 24 24 23 23 21 21 20 20 19 19 18 18 18 18 17 17 17 17 17 17
32 33 34 36 37 37 38 39 36 35 35 33 33 33 33 32 31 30 30 29 28 27 26 26 26 25 25 24 23 23 22 22 21 21 20 20 20 20 20 20 20 19 19
30 32 33 34 35 36 37 37 36 36 35 34 34 33 32 33 32 31 30 30 29 28 27 27 27 26 26 26 26 25 25 24 23 23 22 22 22 22 22 22 22 22 22
26 28 30 32 33 36 37 38 38 37 36 35 35 35 34 33 32 32 32 31 30 30 30 29 28 27 27 27 27 27 27 27 26 25 25 25 25 25 24 24 24 24 24
22 24 26 29 31 33 35 36 37 37 37 36 35 35 35 35 34 34 34 34 33 32 31 31 30 30 30 29 29 29 29 28 28 27 27 27 27 26 26 26 26 26 25
17 20 22 25 27 30 32 34 36 37 36 35 35 34 34 35 35 35 34 35 36 35 33 33 32 32 31 30 30 29 29 29 29 29 28 28 28 28 28 27 28 27 27
12 15 18 20 23 25 28 30 33 34 34 33 34 34 34 33 35 35 35 35 35 35 35 34 34 34 33 32 31 31 30 30 30 30 30 29 29 29 29 29 29 28 28
8 11 14 17 19 22 25 27 29 31 31 31 32 31 32 32 34 35 35 35 35 35 34 35 35 33 33 33 33 32 30 29 29 30 30 30 29 29 29 30 29 29 29
6 7 9 11 14 17 19 21 24 27 28 29 29 29 30 32 32 34 35 35 35 35 34 34 34 34 33 32 32 31 30 29 30 29 29 29 29 29 29 29 30 30 30
5 5 6 7 9 11 14 17 19 22 25 26 27 27 27 29 30 31 32 32 33 33 32 32 31 31 31 30 30 30 28 27 27 28 28 28 28 29 29 30 30 30 30
7 6 4 5 7 9 11 13 16 18 21 23 25 25 26 26 27 28 29 30 29 29 29 30 29 28 29 29 29 29 29 28 26 26 27 27 27 27 27 29 29 29 28
8 7 5 4 4 6 9 11 12 15 17 19 20 20 21 22 24 24 24 25 26 27 27 28 28 27 27 27 27 27 27 27 27 27 26 27 27 27 27 27 28 28 28
11 8 6 4 2 3 4 6 9 11 12 15 17 18 18 19 21 22 23 24 24 25 26 26 26 26 25 26 26 25 26 26 26 26 25 25 25 25 25 25 26 26 26
13 11 9 7 5 4 2 3 5 6 9 11 14 15 15 16 17 19 21 22 22 23 25 25 25 25 25 25 25 25 25 25 24 23 23 23 23 23 23 24 24 24 24
16 14 11 9 8 7 5 3 1 3 6 8 10 11 12 13 14 15 16 18 20 21 22 23 23 24 23 24 24 24 24 23 23 23 23 23 22 22 21 21 22 22 21
18 16 14 12 10 9 8 6 3 1 2 4 6 7 8 9 11 12 14 15 16 18 19 20 21 21 22 22 22 22 22 22 22 21 21 21 21 21 21 20 19 19 18
19 18 16 15 13 12 10 8 6 4 2 0 3 5 6 7 8 9 11 13 14 14 16 17 18 18 19 19 19 19 19 20 20 20 19 19 19 18 17 16 15 15 15
19 18 18 17 15 13 11 10 8 6 5 3 2 2 3 4 5 7 8 10 11 12 13 15 16 16 16 17 17 17 17 17 16 16 15 14 14 14 13 13 13 13 14
Wind_Direction
251 251 249 250 249 246 247 248 247 248 249 249 249 248 249 251 254 254 251 249 248 248 249 252 251 248 246 243 233 224 218 212 202 200 197 203 212 214 219 220 221 224 225
255 253 253 251 247 245 246 246 246 246 248 248 248 247 246 249 252 253 251 249 248 247 247 249 250 247 245 244 243 237 235 234 232 232 228 227 227 231 233 237 235 235 234
255 254 253 253 248 244 246 247 246 246 245 245 246 245 245 246 248 250 250 250 249 247 246 247 248 248 247 246 245 246 246 244 245 248 248 245 245 242 242 247 249 244 241
254 253 252 251 249 244 244 246 246 246 245 244 245 245 244 243 244 246 247 248 248 248 247 246 247 248 249 250 248 250 253 255 256 257 258 259 258 259 257 259 259 256 254
252 251 252 251 251 247 245 244 245 245 244 243 244 244 243 243 243 244 246 247 247 247 247 246 247 248 249 251 250 252 255 258 262 264 263 263 264 264 265 267 268 267 266
252 251 250 249 248 247 246 243 243 243 242 242 242 242 242 241 242 243 244 245 245 246 246 246 247 247 249 251 253 254 256 258 261 264 266 266 266 265 265 268 270 272 272
250 250 249 246 245 244 242 241 241 241 241 241 240 240 241 241 241 241 243 243 244 245 246 247 248 249 249 250 252 254 256 258 260 263 265 267 268 268 268 269 271 274 275
248 248 248 246 245 243 243 241 240 240 241 241 240 239 239 240 240 240 242 241 241 242 245 247 248 248 249 250 250 252 255 257 260 262 264 265 268 270 271 272 274 275 276
247 246 245 245 244 242 241 240 238 237 237 239 241 240 238 239 240 240 240 241 241 242 244 245 246 248 249 250 251 251 254 256 258 262 264 265 267 269 272 274 276 277 277
248 247 246 245 243 242 240 238 238 237 237 239 240 240 239 238 238 237 238 240 240 240 241 243 244 247 249 249 251 252 252 255 257 260 262 265 267 268 271 274 276 278 279
250 247 246 244 242 241 238 236 236 236 237 238 237 237 237 238 238 239 238 239 239 239 240 241 242 245 246 248 250 252 253 255 256 258 261 263 265 268 269 272 275 276 278
250 247 244 242 241 240 238 235 234 234 234 236 237 237 236 236 238 239 238 238 238 239 240 242 242 243 244 247 249 250 253 256 258 259 261 263 264 266 268 270 273 275 276
248 246 244 241 240 239 236 235 233 232 233 235 237 239 239 237 238 240 239 238 239 240 242 242 242 243 244 246 247 250 252 254 257 259 261 262 263 264 266 269 272 273 274
250 248 245 242 240 238 237 235 233 234 234 235 236 238 239 239 239 240 240 238 239 240 242 242 241 242 244 246 246 249 250 252 256 258 260 261 262 263 265 267 270 271 272
253 250 246 243 240 238 237 236 235 235 236 235 236 237 239 239 240 239 239 239 239 240 241 242 244 243 245 245 245 249 251 254 256 257 258 260 262 263 265 267 268 269 271
265 260 251 245 241 240 238 235 235 235 235 236 237 238 238 239 240 239 238 238 239 239 241 242 243 245 246 248 248 249 250 252 256 258 259 261 262 263 265 266 267 269 271
288 269 258 248 241 237 234 231 233 232 233 235 236 237 238 238 239 238 238 238 238 238 240 241 241 243 246 249 248 250 251 252 256 258 258 260 262 264 264 265 267 268 270
329 302 275 256 245 238 232 230 231 231 231 231 233 235 235 237 238 237 237 237 237 237 239 240 241 244 246 247 248 247 249 251 254 255 256 258 260 261 263 264 266 268 269
356 341 313 279 256 246 240 238 236 232 232 231 232 235 235 237 236 236 238 238 236 237 239 239 240 241 244 244 245 246 249 251 251 254 256 258 259 261 263 262 264 266 267
5 357 336 308 275 260 247 240 238 231 230 230 231 233 234 236 237 237 237 237 235 235 237 238 238 239 241 242 244 247 248 249 251 252 255 256 258 260 262 263 263 264 266
19 15 15 2 320 280 257 247 239 231 230 229 230 232 234 235 237 238 236 234 232 233 236 238 237 237 240 243 242 244 246 248 249 250 254 255 255 258 260 260 261 263 265
29 29 32 33 26 6 326 290 240 232 234 230 230 233 233 234 236 238 237 234 234 235 236 237 236 235 238 239 240 243 245 247 249 249 251 253 257 256 258 261 262 262 265
34 36 35 34 28 23 20 5 281 247 236 235 234 234 232 232 233 236 236 235 235 235 234 232 230 232 234 237 240 244 244 245 246 248 251 253 253 254 256 260 263 264 265
37 39 40 38 36 34 31 30 26 341 249 229 225 227 225 224 227 230 230 231 233 232 229 226 226 228 231 234 237 242 243 243 244 247 248 251 254 254 255 258 261 262 264
38 39 40 39 36 33 33 32 39 38 34 219 213 212 213 215 218 221 221 224 229 230 227 225 225 226 228 230 233 236 237 237 240 244 247 249 250 250 252 254 256 261 266
38 38 38 36 35 34 36 38 43 46 51 72 107 154 176 197 207 212 215 216 221 225 224 222 221 220 223 226 229 230 232 234 237 239 240 242 244 245 248 251 254 260 266
Height
5879 5880 5881 5882 5883 5885 5887 5888 5890 5891 5893 5894 5895 5896 5897 5897 5898 5899 5899 5900 5900 5900 5901 5902 5902 5903 5903 5903 5903 5903 5904 5904 5904 5905 5905 5905 5906 5907 5907 5908 5909 5909 5910
5872 5873 5874 5875 5876 5879 5880 5882 5884 5886 5888 5890 5891 5892 5893 5894 5895 5896 5896 5897 5898 5898 5899 5900 5901 5901 5902 5902 5902 5903 5903 5903 5904 5904 5904 5905 5905 5906 5907 5907 5907 5908 5909
5864 5866 5867 5869 5870 5872 5874 5876 5878 5880 5882 5884 5886 5888 5890 5890 5891 5892 5893 5894 5895 5896 5897 5898 5898 5899 5900 5901 5901 5902 5902 5902 5903 5903 5904 5904 5904 5905 5905 5906 5906 5907 5907
5856 5857 5859 5861 5863 5865 5867 5869 5871 5873 5876 5878 5880 5883 5885 5886 5887 5888 5890 5891 5892 5893 5894 5895 5896 5897 5898 5899 5899 5900 5900 5901 5901 5902 5902 5903 5903 5903 5904 5904 5905 5905 5905
5847 5849 5851 5853 5855 5857 5859 5861 5864 5866 5869 5872 5874 5877 5880 5881 5883 5884 5886 5887 5888 5889 5891 5892 5893 5894 5895 5896 5897 5898 5898 5899 5900 5900 5900 5901 5901 5901 5902 5902 5903 5903 5903
5837 5840 5842 5844 5846 5849 5851 5854 5857 5859 5862 5865 5868 5870 5873 5876 5877 5879 5881 5882 5883 5885 5886 5888 5889 5890 5892 5893 5894 5895 5896 5896 5897 5898 5898 5898 5899 5899 5899 5900 5900 5900 5901
5827 5830 5833 5835 5838 5840 5843 5846 5849 5852 5855 5858 5861 5864 5866 5869 5871 5874 5875 5877 5879 5880 5882 5883 5885 5886 5888 5889 5890 5891 5892 5893 5894 5894 5895 5896 5896 5896 5897 5897 5897 5897 5898
5817 5820 5823 5826 5829 5831 5834 5838 5841 5844 5847 5850 5853 5856 5859 5863 5865 5867 5870 5872 5873 5875 5877 5879 5880 5882 5883 5884 5886 5887 5888 5889 5890 5891 5891 5892 5893 5893 5894 5894 5894 5894 5894
5807 5810 5813 5816 5819 5822 5825 5829 5832 5835 5839 5842 5845 5849 5852 5855 5858 5861 5863 5865 5867 5869 5871 5873 5875 5877 5878 5880 5881 5882 5883 5884 5885 5886 5887 5888 5888 5889 5890 5890 5890 5890 5890
5798 5800 5803 5806 5808 5812 5816 5819 5823 5827 5830 5834 5837 5841 5844 5847 5850 5853 5856 5859 5861 5863 5865 5868 5869 5871 5873 5874 5876 5877 5878 5879 5880 5881 5882 5883 5884 5884 5885 5885 5885 5885 5885
5788 5791 5794 5796 5799 5803 5806 5810 5814 5818 5822 5825 5829 5832 5835 5839 5843 5845 5849 5852 5854 5857 5859 5861 5863 5865 5866 5868 5870 5871 5872 5874 5875 5876 5877 5878 5878 5879 5880 5880 5880 5880 5880
5780 5782 5785 5788 5791 5794 5797 5801 5805 5809 5813 5816 5820 5824 5827 5831 5834 5838 5841 5844 5847 5849 5852 5854 5856 5858 5860 5862 5864 5865 5867 5868 5869 5870 5871 5872 5873 5873 5874 5874 5875 5875 5874
5773 5775 5777 5779 5782 5785 5788 5792 5796 5800 5804 5808 5811 5815 5818 5822 5826 5829 5832 5836 5839 5842 5844 5847 5849 5851 5853 5855 5857 5859 5860 5861 5863 5864 5865 5866 5867 5867 5868 5868 5869 5869 5868
5767 5768 5770 5772 5774 5777 5780 5783 5788 5791 5795 5799 5803 5806 5810 5813 5817 5821 5824 5827 5830 5834 5836 5839 5841 5844 5846 5848 5850 5851 5853 5855 5856 5857 5858 5859 5860 5861 5861 5862 5862 5862 5862
5763 5764 5765 5766 5768 5770 5773 5776 5780 5783 5787 5790 5794 5798 5801 5805 5808 5812 5816 5819 5822 5825 5828 5831 5834 5836 5839 5841 5842 5844 5846 5847 5849 5850 5851 5852 5853 5854 5854 5855 5855 5855 5855
5760 5760 5760 5762 5763 5765 5767 5770 5773 5776 5780 5783 5786 5790 5793 5797 5800 5803 5807 5810 5813 5817 5820 5823 5826 5828 5831 5833 5835 5836 5838 5839 5841 5843 5844 5845 5846 5847 5847 5848 5848 5848 5848
5758 5757 5757 5757 5758 5760 5761 5764 5766 5770 5773 5776 5780 5783 5786 5789 5792 5795 5798 5801 5804 5808 5812 5814 5817 5820 5823 5825 5827 5829 5830 5832 5834 5835 5836 5837 5838 5839 5840 5840 5841 5841 5841
5756 5755 5755 5755 5755 5756 5757 5759 5761 5764 5767 5770 5773 5776 5779 5782 5785 5787 5790 5793 5796 5800 5803 5806 5809 5812 5815 5817 5819 5821 5823 5825 5826 5828 5829 5830 5831 5832 5832 5833 5833 5833 5833
5756 5754 5753 5753 5753 5753 5754 5755 5757 5759 5761 5764 5767 5770 5772 5775 5777 5780 5783 5786 5789 5792 5795 5798 5801 5804 5807 5809 5812 5814 5816 5818 5819 5820 5822 5823 5824 5824 5825 5825 5825 5825 5825
5756 5754 5752 5751 5751 5751 5752 5752 5753 5755 5757 5759 5761 5763 5766 5768 5771 5773 5776 5779 5782 5785 5788 5791 5794 5797 5800 5802 5804 5807 5809 5811 5812 5814 5815 5816 5817 5817 5818 5818 5818 5818 5818
5756 5754 5752 5751 5750 5750 5749 5750 5750 5751 5752 5754 5756 5758 5761 5763 5765 5767 5769 5772 5775 5778 5781 5784 5787 5790 5793 5795 5798 5800 5802 5804 5805 5807 5808 5809 5810 5811 5811 5811 5811 5811 5812
5757 5754 5752 5751 5749 5749 5748 5747 5747 5749 5750 5751 5753 5754 5756 5758 5759 5761 5763 5766 5769 5772 5775 5778 5781 5784 5787 5789 5792 5794 5796 5798 5799 5800 5802 5803 5804 5804 5805 5805 5805 5805 5805
5759 5756 5754 5752 5750 5749 5748 5747 5746 5747 5748 5749 5750 5751 5752 5753 5755 5757 5759 5761 5763 5766 5769 5772 5775 5777 5780 5783 5786 5788 5790 5792 5793 5795 5796 5797 5798 5798 5799 5799 5799 5799 5799
5762 5759 5756 5754 5752 5750 5748 5747 5746 5746 5746 5746 5747 5748 5749 5750 5751 5753 5755 5757 5759 5761 5764 5766 5769 5772 5775 5777 5780 5782 5784 5786 5787 5789 5790 5791 5792 5793 5793 5794 5794 5794 5794
5766 5762 5759 5756 5754 5752 5750 5748 5747 5746 5746 5745 5746 5746 5747 5748 5749 5750 5752 5753 5755 5757 5759 5762 5764 5767 5770 5772 5775 5777 5779 5781 5783 5784 5785 5787 5787 5788 5788 5789 5789 5790 5790
5769 5766 5762 5759 5756 5753 5751 5749 5748 5747 5746 5746 5745 5746 5746 5747 5747 5748 5749 5751 5752 5754 5756 5758 5760 5763 5766 5768 5771 5773 5775 5777 5779 5780 5781 5782 5783 5784 5785 5785 5785 5786 5786